EW5790 Weather Reports


Display with metric or nautical units.
time (UTC)temp
F
wind
direction
speed
MPH
gust
MPH
rain 1hr
in
rain 24hr
in
rain mn
in
humidity
%
barometer
mb
20260903053009 72 127 0.0 0.0 0.00 0.00 0.00 1 1016.3
20260903051507 72 127 0.0 0.0 0.00 0.00 0.00 1 1016.4
20260903050004 72 168 0.0 0.0 0.00 0.00 0.00 1 1016.3
20260903044605 72 168 0.0 0.0 0.00 0.00 0.00 1 1016.2
20260903043053 73 168 0.0 0.0 0.00 0.00 0.00 1 1016.3
20260903041549 73 168 0.0 0.0 0.00 0.00 0.00 1 1016.3
20260903040045 73 168 0.0 0.0 0.00 0.00 0.00 1 1016.3
20260903034540 73 168 0.0 0.0 0.00 0.00 0.00 1 1016.3
20260903033035 74 168 0.0 0.0 0.00 0.00 0.00 1 1016.4
20260903031531 74 168 0.0 0.0 0.00 0.00 0.00 1 1016.4
20260903030037 74 168 0.0 0.0 0.00 0.00 0.00 1 1016.4
20260903024535 75 168 0.0 0.0 0.00 0.00 0.00 1 1016.4
20260903023018 75 168 0.0 0.0 0.00 0.00 0.00 1 1016.4
20260903021513 75 168 0.0 0.0 0.00 0.00 0.00 1 1016.5
20260903020009 76 178 0.0 0.0 0.00 0.00 0.00 1 1016.4
20260903014506 76 184 0.0 0.0 0.00 0.00 0.00 1 1016.3
20260903013002 77 184 0.0 0.0 0.00 0.00 0.00 1 1016.1
20260903011609 77 185 0.0 0.0 0.00 0.00 0.00 7 1015.8
20260903010109 78 188 0.0 0.0 0.00 0.00 0.00 15 1015.6
20260903004557 80 188 0.0 0.0 0.00 0.00 0.00 24 1015.5
20260903003043 82 188 0.0 0.0 0.00 0.00 0.00 36 1015.4
20260903001539 83 188 0.0 0.0 0.00 0.00 0.00 51 1015.3
20260903000035 85 188 0.0 0.0 0.00 0.00 0.00 58 1015.2
20260902234531 88 188 0.0 0.0 0.00 0.00 0.00 63 1015.2
20260902233035 90 188 0.0 0.0 0.00 0.00 0.00 62 1015.2
20260902231525 92 188 0.0 0.0 0.00 0.00 0.00 61 1015.3
20260902230025 95 295 0.0 0.0 0.00 0.00 0.00 55 1015.4
20260902224525 97 294 0.0 0.0 0.00 0.00 0.00 53 1015.4
20260902223018 97 294 0.0 0.0 0.00 0.00 0.00 48 1015.4
20260902221517 97 294 0.0 0.0 0.00 0.00 0.00 47 1015.4
20260902220010 97 300 0.0 0.0 0.00 0.00 0.00 43 1015.5
20260902214505 98 254 0.0 0.0 0.00 0.00 0.00 43 1015.5
20260902213104 98 350 0.0 0.0 0.00 0.00 0.00 43 1015.5
20260902211610 98 277 0.0 0.0 0.00 0.00 0.00 43 1015.7
20260902210056 98 294 0.0 0.0 0.00 0.00 0.00 42 1015.7
20260902204548 98 295 0.0 0.0 0.00 0.00 0.00 43 1015.7
20260902203043 98 349 0.0 0.0 0.00 0.00 0.00 41 1015.9
20260902201543 98 208 0.0 0.0 0.00 0.00 0.00 45 1016.0
20260902200133 97 111 0.0 0.0 0.00 0.00 0.00 43 1016.1
20260902193002 95 300 0.0 0.0 0.00 0.00 0.00 47 1016.6
20260902191559 96 122 0.0 0.0 0.00 0.00 0.00 48 1016.7
20260902190044 95 128 0.0 0.0 0.00 0.00 0.00 50 1016.8
20260902181611 96 294 0.0 0.0 0.00 0.00 0.00 43 1017.1
20260902180057 96 284 0.0 0.0 0.00 0.00 0.00 45 1017.3
20260902174545 95 287 0.0 0.0 0.00 0.00 0.00 49 1017.4
20260902173041 94 289 0.0 0.0 0.00 0.00 0.00 52 1017.6
20260902171538 94 301 0.0 0.0 0.00 0.00 0.00 51 1017.9
20260902170032 92 17 0.0 0.0 0.00 0.00 0.00 54 1018.1
20260902164528 92 257 0.0 0.0 0.00 0.00 0.00 56 1018.2
20260902163027 93 282 0.0 0.0 0.00 0.00 0.00 54 1018.5
20260902161522 93 259 0.0 0.0 0.00 0.00 0.00 56 1018.7
20260902160018 93 336 0.0 0.0 0.00 0.00 0.00 54 1018.8
20260902154513 92 355 0.0 0.0 0.00 0.00 0.00 56 1018.8
20260902153009 91 300 0.0 0.0 0.00 0.00 0.00 57 1018.9
20260902151505 90 288 0.0 0.0 0.00 0.00 0.00 60 1019.0
20260902144557 88 315 0.0 0.0 0.00 0.00 0.00 62 1018.8
20260902143051 87 315 0.0 0.0 0.00 0.00 0.00 62 1018.9
20260902141546 85 96 0.0 0.0 0.00 0.00 0.00 53 1018.9
20260902140043 84 94 0.0 0.0 0.00 0.00 0.00 47 1019.0
20260902134539 81 94 0.0 0.0 0.00 0.00 0.00 33 1019.1
20260902133034 77 94 0.0 0.0 0.00 0.00 0.00 1 1019.2
20260902131530 76 94 0.0 0.0 0.00 0.00 0.00 1 1019.1
20260902130025 74 94 0.0 0.0 0.00 0.00 0.00 1 1019.1
20260902124524 73 94 0.0 0.0 0.00 0.00 0.00 1 1019.2
20260902123018 71 154 0.0 0.0 0.00 0.00 0.00 1 1019.1
20260902121511 70 154 0.0 0.0 0.00 0.00 0.00 1 1019.2
20260902120009 68 154 0.0 0.0 0.00 0.00 0.00 1 1018.9
20260902114506 68 154 0.0 0.0 0.00 0.00 0.00 1 1018.7
20260902113058 67 154 0.0 0.0 0.00 0.00 0.00 1 1018.5
20260902111558 68 154 0.0 0.0 0.00 0.00 0.00 1 1018.3
20260902110050 68 154 0.0 0.0 0.00 0.00 0.00 1 1018.2
20260902104549 68 154 0.0 0.0 0.00 0.00 0.00 1 1017.9
20260902103046 68 154 0.0 0.0 0.00 0.00 0.00 1 1017.9
20260902101544 68 154 0.0 0.0 0.00 0.00 0.00 1 1017.9
20260902100035 68 154 0.0 0.0 0.00 0.00 0.00 1 1017.8
20260902094530 68 154 0.0 0.0 0.00 0.00 0.00 1 1017.7
20260902093022 69 154 0.0 0.0 0.00 0.00 0.00 1 1017.7
20260902091519 69 154 0.0 0.0 0.00 0.00 0.00 1 1017.7
20260902090015 69 154 0.0 0.0 0.00 0.00 0.00 1 1017.5
20260902084510 69 154 0.0 0.0 0.00 0.00 0.00 1 1017.4
20260902083005 69 154 0.0 0.0 0.00 0.00 0.00 1 1017.3
20260902081501 69 154 0.0 0.0 0.00 0.00 0.00 1 1017.2
20260902080057 69 154 0.0 0.0 0.00 0.00 0.00 1 1017.3
20260902074556 69 154 0.0 0.0 0.00 0.00 0.00 1 1017.3
20260902073048 70 154 0.0 0.0 0.00 0.00 0.00 1 1017.2
20260902071551 70 154 0.0 0.0 0.00 0.00 0.00 1 1017.3
20260902070039 70 154 0.0 0.0 0.00 0.00 0.00 1 1017.3
20260902064537 70 154 0.0 0.0 0.00 0.00 0.00 1 1017.3
20260902063032 70 154 0.0 0.0 0.00 0.00 0.00 1 1017.3
20260902061540 70 154 0.0 0.0 0.00 0.00 0.00 1 1017.4
20260902060023 71 154 0.0 0.0 0.00 0.00 0.00 1 1017.3
20260902054518 71 154 0.0 0.0 0.00 0.00 0.00 1 1017.2